CYGFM07

Last updated on Wed Sep 23 2026 00:03:10 GMT+0000 (Coordinated Universal Time)

1 41890U 16078G 26265.44543348 .00026945 00000+0 26071-3 0 9994 2 41890 34.9438 299.6009 0003555 63.1699 296.9391 15.65370775544224
UTC large
Height (km)
Speed (km/s)
/
Latitude / Longitude
Inclination (degrees)
Orbital Period (minutes)
Azimuth
Elevation
Range (km)
Doppler Factor

Next 0 passes for location: London (51.5072 / 0.1276)

No passes found over London.
CYGFM07